Date String (YYYY-MM-DD hh:mm:ss) UTC,Instrument flags,absolute air pressure of the measurement (hPa),sample flow rate (lpm),inlet stack bypass flow (lpm),air temperature of the measurement (°C),ambient temperature measured by the external sensor (°C),aerosol sample conditioner tube jacket temperature (°C),OPC LED temperature (°C),internal box temperature (°C),relative humidity of the measurement (%),span deviation,mass concentration of particles derived from Lorenz-Mie calculation of OPC scattering (μg/m³),mass concentration of particles derived from Lorenz-Mie calculation of OPC scattering (μg/m³),mass concentration of particles derived from Lorenz-Mie calculation of OPC scattering (μg/m³)
DateTimeUTC,F1_M11,P_M11,Q1_M11,Q2_M11,T1_M11,T2_M11,T3_M11,T4_M11,T5_M11,U1_M11,ZSPAN_M11,X0_M11,X2_M11,X1_M11
2024-02-10 09:00:00,SystemResetWarning,0825.3,5.00,000.00,018.3,017.8,000.0,026.8,020.1,22.0,0000.0,0004.57,0003.46,0003.35
2024-02-10 09:01:00,SystemResetWarning,0825.2,5.01,000.00,018.3,017.8,000.0,026.8,020.1,22.0,0000.0,0004.51,0003.45,0003.35
2024-02-10 09:02:00,SystemResetWarning,0825.2,5.00,000.00,018.3,017.8,000.0,026.8,020.1,22.0,0000.0,0004.48,0003.45,0003.37
2024-02-10 09:03:00,SystemResetWarning,0825.2,5.00,000.00,018.3,017.8,000.0,026.8,020.1,22.0,0000.0,0004.49,0003.46,0003.38
2024-02-10 09:04:00,SystemResetWarning,0825.3,5.00,000.00,018.3,017.8,000.0,026.8,020.1,21.9,0000.0,0004.54,0003.48,0003.39
2024-02-10 09:05:00,SystemResetWarning,0825.3,4.99,000.00,018.3,017.8,000.0,026.8,020.1,21.9,0000.0,0004.85,0003.49,0003.41
2024-02-10 09:06:00,SystemResetWarning,0825.2,5.00,000.00,018.3,017.8,000.0,026.8,020.1,21.9,0000.0,0005.39,0003.51,0003.44
2024-02-10 09:07:00,SystemResetWarning,0825.3,5.01,000.00,018.3,017.8,000.0,026.8,020.1,21.9,0000.0,0005.43,0003.54,0003.48
2024-02-10 09:08:00,SystemResetWarning,0825.2,5.00,000.00,018.3,017.8,000.0,026.8,020.1,21.9,0000.0,0005.50,0003.58,0003.52
2024-02-10 09:09:00,SystemResetWarning,0825.2,4.99,000.00,018.3,017.8,000.0,026.8,020.1,21.8,0000.0,0005.64,0003.64,0003.56
2024-02-10 09:10:00,SystemResetWarning,0825.3,4.99,000.00,018.3,017.8,000.0,026.8,020.1,21.8,0000.0,0005.70,0003.67,0003.59
2024-02-10 09:11:00,SystemResetWarning,0825.2,4.99,000.00,018.3,017.8,000.0,026.8,020.1,21.8,0000.0,0005.83,0003.72,0003.63
2024-02-10 09:12:00,SystemResetWarning,0825.3,5.00,000.00,018.3,017.8,000.0,026.8,020.1,21.7,0000.0,0005.97,0003.78,0003.68
2024-02-10 09:13:00,SystemResetWarning,0825.3,5.00,000.00,018.3,017.8,000.0,026.8,020.1,21.7,0000.0,0006.05,0003.82,0003.71
2024-02-10 09:14:00,SystemResetWarning,0825.2,5.00,000.00,018.3,017.8,000.0,026.8,020.1,21.7,0000.0,0006.13,0003.86,0003.74
2024-02-10 09:15:00,SystemResetWarning,0825.2,5.01,000.00,018.3,017.8,000.0,026.8,020.1,21.7,0000.0,0006.16,0003.88,0003.76
2024-02-10 09:16:00,SystemResetWarning,0825.2,5.01,000.00,018.3,017.8,000.0,026.8,020.1,21.6,0000.0,0006.01,0003.90,0003.78
2024-02-10 09:17:00,SystemResetWarning,0825.2,4.99,000.00,018.3,017.8,000.0,026.8,020.1,21.6,0000.0,0005.42,0003.91,0003.78
2024-02-10 09:18:00,SystemResetWarning,0825.3,4.99,000.00,018.3,017.8,000.0,026.8,020.1,21.6,0000.0,0005.44,0003.92,0003.78
2024-02-10 09:19:00,SystemResetWarning,0825.2,5.02,000.00,018.3,017.8,000.0,026.8,020.1,21.5,0000.0,0005.37,0003.90,0003.77
2024-02-10 09:20:00,SystemResetWarning,0825.2,5.00,000.00,018.3,017.8,000.0,026.8,020.1,21.5,0000.0,0005.38,0003.90,0003.77
2024-02-10 09:21:00,SystemResetWarning,0825.3,5.00,000.00,018.3,017.8,000.0,026.8,020.1,21.5,0000.0,0005.42,0003.90,0003.76
2024-02-10 09:22:00,SystemResetWarning,0825.3,4.99,000.00,018.3,017.8,000.0,026.8,020.1,21.5,0000.0,0005.38,0003.89,0003.75
2024-02-10 09:23:00,SystemResetWarning,0825.2,5.00,000.00,018.3,017.8,000.0,026.8,020.1,21.5,0000.0,0005.30,0003.87,0003.74
2024-02-10 09:24:00,SystemResetWarning,0825.2,5.00,000.00,018.3,017.8,000.0,026.8,020.1,21.4,0000.0,0005.29,0003.87,0003.75
2024-02-10 09:25:00,SystemResetWarning,0825.3,5.01,000.00,018.3,017.8,000.0,026.8,020.1,21.4,0000.0,0005.30,0003.87,0003.75
2024-02-10 09:26:00,SystemResetWarning,0825.2,5.01,000.00,018.3,017.8,000.0,026.8,020.0,21.4,0000.0,0005.28,0003.87,0003.76
2024-02-10 09:27:00,SystemResetWarning,0825.2,5.01,000.00,018.3,017.8,000.0,026.8,020.1,21.4,0000.0,0005.20,0003.87,0003.76
2024-02-10 09:28:00,SystemResetWarning,0825.3,5.00,000.00,018.3,017.8,000.0,026.8,020.1,21.4,0000.0,0005.18,0003.86,0003.77
2024-02-10 09:29:00,SystemResetWarning,0825.2,5.00,000.00,018.3,017.8,000.0,026.8,020.1,21.4,0000.0,0005.14,0003.85,0003.77
2024-02-10 09:30:00,SystemResetWarning,0825.2,5.00,000.00,018.3,017.8,000.0,026.8,020.0,21.4,0000.0,0005.16,0003.86,0003.77
2024-02-10 09:31:00,SystemResetWarning,0825.2,5.00,000.00,018.2,017.8,000.0,026.8,020.0,21.4,0000.0,0005.10,0003.85,0003.77
2024-02-10 09:32:00,SystemResetWarning,0825.2,5.00,000.00,018.2,017.8,000.0,026.8,020.0,21.3,0000.0,0005.03,0003.84,0003.76
2024-02-10 09:33:00,SystemResetWarning,0825.3,4.99,000.00,018.2,017.8,000.0,026.8,020.0,21.3,0000.0,0005.05,0003.85,0003.78
2024-02-10 09:34:00,SystemResetWarning,0825.3,4.99,000.00,018.2,017.8,000.0,026.8,020.0,21.3,0000.0,0005.05,0003.86,0003.78
2024-02-10 09:35:00,SystemResetWarning,0825.3,5.00,000.00,018.2,017.8,000.0,026.8,020.0,21.3,0000.0,0005.03,0003.84,0003.76
2024-02-10 09:36:00,SystemResetWarning,0825.3,5.00,000.00,018.2,017.8,000.0,026.8,020.0,21.3,0000.0,0004.91,0003.79,0003.71
2024-02-10 09:37:00,SystemResetWarning,0825.3,5.00,000.00,018.2,017.8,000.0,026.8,020.0,21.2,0000.0,0004.80,0003.73,0003.65
2024-02-10 09:38:00,SystemResetWarning,0825.2,5.01,000.00,018.2,017.8,000.0,026.8,020.0,21.2,0000.0,0004.74,0003.70,0003.61
2024-02-10 09:39:00,SystemResetWarning,0825.3,5.01,000.00,018.2,017.7,000.0,026.8,020.0,21.2,0000.0,0004.64,0003.65,0003.57
2024-02-10 09:40:00,SystemResetWarning,0825.2,5.00,000.00,018.2,017.7,000.0,026.8,020.0,21.1,0000.0,0004.60,0003.60,0003.50
2024-02-10 09:41:00,SystemResetWarning,0825.3,4.99,000.00,018.2,017.7,000.0,026.8,020.0,21.1,0000.0,0004.63,0003.56,0003.44
2024-02-10 09:42:00,SystemResetWarning,0825.3,4.99,000.00,018.2,017.7,000.0,026.8,020.0,21.1,0000.0,0004.55,0003.51,0003.38
2024-02-10 09:43:00,SystemResetWarning,0825.3,5.00,000.00,018.2,017.7,000.0,026.8,020.0,21.1,0000.0,0004.46,0003.45,0003.32
2024-02-10 09:44:00,SystemResetWarning,0825.3,5.02,000.00,018.2,017.7,000.0,026.8,020.0,21.1,0000.0,0004.33,0003.38,0003.23
2024-02-10 09:45:00,SystemResetWarning,0825.3,5.00,000.00,018.2,017.7,000.0,026.8,020.0,21.1,0000.0,0004.37,0003.31,0003.15
2024-02-10 09:46:00,SystemResetWarning,0825.3,4.99,000.00,018.2,017.7,000.0,026.8,020.0,21.1,0000.0,0004.27,0003.25,0003.08
2024-02-10 09:47:00,SystemResetWarning,0825.2,4.99,000.00,018.2,017.7,000.0,026.8,020.0,21.2,0000.0,0004.22,0003.22,0003.03
2024-02-10 09:48:00,SystemResetWarning,0825.2,5.00,000.00,018.2,017.7,000.0,026.8,020.0,21.2,0000.0,0004.35,0003.22,0003.01
2024-02-10 09:49:00,SystemResetWarning,0825.3,5.00,000.00,018.2,017.7,000.0,026.8,020.0,21.1,0000.0,0004.37,0003.20,0002.96
2024-02-10 09:50:00,SystemResetWarning,0825.3,5.00,000.00,018.2,017.7,000.0,026.8,020.0,21.1,0000.0,0004.64,0003.17,0002.91
2024-02-10 09:51:00,SystemResetWarning,0825.2,5.00,000.00,018.2,017.7,000.0,026.8,020.0,21.1,0000.0,0004.61,0003.19,0002.95
2024-02-10 09:52:00,SystemResetWarning,0825.2,5.00,000.00,018.2,017.7,000.0,026.8,020.0,21.1,0000.0,0004.53,0003.21,0003.04
2024-02-10 09:53:00,SystemResetWarning,0825.2,5.01,000.00,018.2,017.7,000.0,026.8,020.0,21.1,0000.0,0005.60,0003.25,0003.06
2024-02-10 09:54:00,SystemResetWarning,0825.2,5.01,000.00,018.2,017.7,000.0,026.8,020.0,21.1,0000.0,0006.99,0003.27,0003.08
2024-02-10 09:55:00,SystemResetWarning,0825.2,5.00,000.00,018.2,017.7,000.0,026.8,020.0,21.1,0000.0,0007.31,0003.29,0003.10
2024-02-10 09:56:00,SystemResetWarning,0825.2,4.99,000.00,018.2,017.7,000.0,026.8,020.0,21.1,0000.0,0007.21,0003.30,0003.13
2024-02-10 09:57:00,SystemResetWarning,0825.2,4.99,000.00,018.2,017.7,000.0,026.8,020.0,21.1,0000.0,0007.34,0003.36,0003.15
2024-02-10 09:58:00,SystemResetWarning,0825.2,5.01,000.00,018.2,017.7,000.0,026.8,020.0,21.1,0000.0,0007.36,0003.36,0003.15
2024-02-10 09:59:00,SystemResetWarning,0825.2,5.02,000.00,018.2,017.7,000.0,026.8,020.0,21.0,0000.0,0007.35,0003.36,0003.15
